Regional Weather Roundup
Issued by NWS Little Rock, AR

Home | Current Version | Previous Version | Text Only | Print | Product List | Glossary Off
Versions: 1 2 3 4 5 6 7 8 9 10 11 12 13 14 15 16 17 18 19 20 21 22 23 24 25 26 27

000
ASUS44 KLZK 281005
RWRLZK

WEATHER ROUNDUP FOR ARKANSAS
NATIONAL WEATHER SERVICE LITTLE ROCK AR
500 AM CDT SAT MAY 28 2016

NOTE: "FAIR" INDICATES FEW OR NO CLOUDS BELOW 12,000 FEET WITH NO
SIGNIFICANT WEATHER AND/OR OBSTRUCTIONS TO VISIBILITY.

ARZ001-003-010-029-281100-
NORTHWEST ARKANSAS

CITY           SKY/WX    TMP DP  RH WIND       PRES   REMARKS
FAYETTEVILLE   CLOUDY    57  57 100 CALM      29.85R
FORT SMITH     CLOUDY    64  60  87 N5        29.85R
HARRISON       PTCLDY    62  60  93 SE5       29.87R
BENTONVILLE    CLOUDY    61  55  82 CALM      29.86R
ROGERS           N/A     61  59  93 S3        29.87R
SILOAM SPGS    CLOUDY    61  52  72 CALM      29.86R
HIGHFILL       CLOUDY    60  60 100 S3        29.85R
$$

ARZ004-005-016-281100-
NORTH CENTRAL ARKANSAS

CITY           SKY/WX    TMP DP  RH WIND       PRES   REMARKS
BATESVILLE     CLOUDY    66  64  94 CALM      29.91R
FLIPPIN        CLOUDY   N/A N/A N/A CALM      29.83R
MTN HOME       CLOUDY    63  61  93 CALM      29.86R
$$

ARZ040-041-281100-
WEST CENTRAL ARKANSAS

CITY           SKY/WX    TMP DP  RH WIND       PRES   REMARKS
MENA           CLOUDY    68  64  88 CALM      29.91R
MOUNT IDA      CLOUDY    63  60  90 CALM      29.86R
$$

ARZ009-017-025-026-028-281100-
NORTHEAST ARKANSAS

CITY           SKY/WX    TMP DP  RH WIND       PRES   REMARKS
CORNING          N/A     68  68 100 SE7       29.90S
JONESBORO      CLOUDY    68  65  90 SE7       29.90R
NEWPORT        CLOUDY    67  67 100 S3        29.92R
WALNUT RIDGE   CLOUDY    68  63  83 S8        29.89R
BLYTHEVILLE    LGT RAIN  69  66  90 SE6       29.93S
$$

ARZ022-023-033-042-044-281100-
CENTRAL ARKANSAS

CITY           SKY/WX    TMP DP  RH WIND       PRES   REMARKS
LITTLE ROCK    MOCLDY    66  62  87 CALM      29.91R
N LITTLE ROCK    N/A     66  62  89 S5        29.88R
JACKSONVILLE   CLOUDY    65  64  99 E3        29.90R
SEARCY         PTCLDY    64  64 100 S3        29.92R
HOT SPRINGS    PTCLDY    64  62  93 CALM      29.90S
RUSSELLVILLE   CLOUDY    63  62  97 CALM      29.87R
CLINTON        FAIR      64  64 100 CALM      29.91R
$$

ARZ036-281100-
EAST ARKANSAS

CITY           SKY/WX    TMP DP  RH WIND       PRES   REMARKS
WEST MEMPHIS   LGT RAIN  67  66  97 SE5       29.92R
$$

ARZ050-053-066-070-073-281100-
SOUTHWEST ARKANSAS

CITY           SKY/WX    TMP DP  RH WIND       PRES   REMARKS
ARKADELPHIA    FAIR      63  63 100 CALM      29.91R FOG
CAMDEN         FOG       61  59  94 CALM      29.91R VSB 1/2
TEXARKANA      CLOUDY    63  62  97 SE5       29.89S
EL DORADO      CLOUDY    62  61  96 CALM      29.91S
DE QUEEN       PTCLDY    62  62 100 NE3       29.87R
$$

ARZ056-057-069-281100-
SOUTHEAST ARKANSAS

CITY           SKY/WX    TMP DP  RH WIND       PRES   REMARKS
PINE BLUFF     CLOUDY    66  64  93 S6        29.92R
STUTTGART      CLOUDY    70  61  73 S10       29.91S
MONTICELLO     CLOUDY    67  64  90 CALM      29.92S

$$






USA.gov is the U.S. government's official web portal to all federal, state and local government web resources and services.